Date,TemperatureHighF,TemperatureAvgF,TemperatureLowF,DewpointHighF,DewpointAvgF,DewpointLowF,HumidityHigh,HumidityAvg,HumidityLow,PressureMaxIn,PressureMinIn,WindSpeedMaxMPH,WindSpeedAvgMPH,GustSpeedMaxMPH,PrecipitationSumIn
2013-1-10,63.0,63.0,63.0,50.0,50.0,50.0,65,65,65,30.32,30.21,10,4,13,0.00
2013-1-11,63.0,63.0,63.0,50.0,50.0,50.0,65,65,65,30.29,30.15,8,2,12,0.00
2013-1-12,63.0,63.0,63.0,50.0,50.0,50.0,65,65,65,30.24,30.09,8,2,9,0.00
2013-1-13,63.0,63.0,63.0,50.0,50.0,50.0,65,65,65,30.21,30.06,7,2,9,0.00
2013-1-14,63.0,63.0,63.0,50.0,50.0,50.0,65,65,65,30.21,30.15,7,1,8,0.00
2013-1-15,63.0,63.0,63.0,50.0,50.0,50.0,65,65,65,30.18,30.09,7,1,8,0.00
2013-1-16,63.0,63.0,63.0,50.0,50.0,50.0,65,65,65,30.15,30.03,6,1,8,0.00
2013-1-17,63.0,63.0,63.0,50.0,50.0,50.0,65,65,65,30.18,30.03,10,3,12,0.12
2013-1-18,63.0,63.0,63.0,50.0,50.0,50.0,65,65,65,30.32,30.18,8,4,13,0.00
2013-1-19,63.0,63.0,63.0,50.0,50.0,50.0,65,65,65,30.29,30.15,8,4,11,0.00
2013-1-20,63.0,63.0,63.0,50.0,50.0,50.0,65,65,65,30.21,30.06,6,2,8,0.00
2013-1-21,63.0,63.0,63.0,50.0,50.0,50.0,65,65,65,30.15,30.06,6,2,8,0.00
2013-1-22,63.0,63.0,63.0,50.0,50.0,50.0,65,65,65,30.32,30.12,7,2,11,0.00
2013-1-23,63.0,63.0,63.0,50.0,50.0,50.0,65,65,65,30.38,30.29,6,2,10,0.00
2013-1-24,63.0,63.0,63.0,50.0,50.0,50.0,65,65,65,30.35,30.27,7,2,8,0.00
2013-1-25,63.0,63.0,63.0,50.0,50.0,50.0,65,65,65,30.32,30.24,5,1,6,0.00
2013-1-26,76.8,60.8,41.3,55.9,47.3,-99.9,95,68,38,30.29,30.12,6,1,10,0.00
2013-1-27,84.0,65.2,50.7,62.8,53.3,48.6,98,71,35,30.27,30.18,7,2,8,0.17
2013-1-28,86.7,71.2,61.3,65.3,61.1,56.6,97,74,40,30.30,30.18,9,2,11,1.52
2013-1-29,89.4,72.0,61.5,68.3,64.2,60.3,98,79,42,30.21,30.04,7,3,13,0.00
2013-1-30,82.4,72.9,66.6,67.6,65.8,63.8,93,80,55,30.06,29.86,10,5,15,0.00
2013-1-31,70.5,57.7,42.6,67.4,43.3,30.4,97,62,36,30.21,29.89,12,4,14,0.08